Location: Luz Observatory
(34.5000°N, 117.2833°W)
Time: 23:08:36
(UTC-07:00)

Hubble Space Telescope - Visible Passes

Search period start: 28 May 2015 00:00
Search period end: 07 June 2015 00:00
Orbit: 542 x 546 km, 28.5° (Epoch: 27 May)

Date Brightness Start Highest point End Pass type
(mag) Time Alt. Az. Time Alt. Az. Time Alt. Az.
31 May 3.1 04:36:12 10° S 04:37:47 12° SSE 04:39:28 10° SE visible
01 Jun 2.8 04:27:13 12° S 04:28:59 15° SSE 04:31:26 10° ESE visible
02 Jun 2.6 04:18:49 16° S 04:20:11 18° SSE 04:23:06 10° ESE visible
03 Jun 2.3 04:10:26 20° S 04:11:24 22° SSE 04:14:37 10° ESE visible
04 Jun 2.0 04:02:02 24° S 04:02:36 25° SSE 04:06:03 10° ESE visible
05 Jun 1.8 03:53:38 28° S 03:53:50 28° S 03:57:25 10° ESE visible
06 Jun 1.7 03:45:15 31° SSE 03:45:15 31° SSE 03:48:45 10° ESE visible
